Location: Unspecified
(0.0000°N, 0.0000°E)
Time: 22:01:06
(UTC+00:00)

Alouette 1 - Pass Details

Date: 28 October 2021
Orbit: 985 x 1019 km, 80.5° (Epoch: 07 December)

Event Time Altitude Azimuth Distance (km) Brightness Sun altitude
Rises 04:46:01 0° 145° (SE) 3,704 9.8 -14.1°
Reaches altitude 10° 04:50:55 10° 112° (ESE) 2,760 9.8 -12.9°
Maximum altitude 04:52:37 11° 96° (E) 2,679 9.7 -12.5°
Drops below altitude 10° 04:54:20 10° 80° (E) 2,763 9.5 -12.0°
Sets 04:59:12 0° 47° (NE) 3,718 9.5 -10.9°
